Prague, Czech Republic

9:50 PM CEST on May 25, 2018 (GMT +0200)
Ruzyne

Weather History for LKPR - February, 2014

Change the Weather History Date:

Tuesday, February 11, 2014

  Actual Average Record
Temperature  
Mean Temperature 38 °F -  
Max Temperature 43 °F 40 °F 53 °F (1998)
Min Temperature 32 °F 26 °F -4 °F (2012)
Degree Days  
Heating Degree Days 28    
Moisture  
Dew Point 31 °F    
Average Humidity 75    
Maximum Humidity 93    
Minimum Humidity 46    
Precipitation  
Precipitation 0.00 in 0.03 in - ()
Sea Level Pressure  
Sea Level Pressure 29.65 in    
Wind  
Wind Speed 9 mph ()    
Max Wind Speed 22 mph    
Max Gust Speed 33 mph    
Visibility 7.9 miles    
Events Rain    
Averages and records for this station are not official NWS values.
T = Trace of Precipitation, MM = Missing Value Source: Averaged Metar Reports

Daily Weather History Graph

Daily Weather History Graph

Search for Another Location

Airport or City:

Astronomy

Feb. 11, 2014 Rise Set
Actual Time 7:21 AM CET 5:13 PM CET
Civil Twilight 6:47 AM CET 5:47 PM CET
Nautical Twilight 6:09 AM CET 6:25 PM CET
Astronomical Twilight 5:31 AM CET 7:03 PM CET
Moon 2:10 PM CET (2/11) 4:55 AM CET (2/11)
Length of Visible Light 11h 00m
Length of Day
9h 52m
Waxing Gibbous, 89% of the Moon is Illuminated
Feb 11
Waxing Gibbous
Feb 15
Full
Feb 22
Last Quarter
Mar 1
New
Mar 8
First Quarter

Hourly Weather History & Observations

Time (CET) Temp. Windchill Dew Point Humidity Pressure Visibility Wind Dir Wind Speed Gust Speed Precip Events Conditions
12:00 AM 35 °F - 32 °F 85% 29.51 in 12 mi SE 6.7 mph - -   Mostly Cloudy
12:00 AM 35.6 °F 29.9 °F 32.0 °F 87% 29.44 in - SE 6.9 mph - N/A   Clear
12:30 AM 35.6 °F 32.8 °F 32.0 °F 87% 29.47 in - SSE 3.5 mph - N/A   Clear
12:50 AM 35.6 °F 32.8 °F 32.0 °F 87% 29.47 in 6.2 mi West 3.5 mph - N/A Rain Light Rain
1:00 AM 35 °F - 33 °F 88% 29.54 in 9 mi WSW 4.5 mph - - Rain Light Rain
1:00 AM 35.6 °F 32.8 °F 32.0 °F 87% 29.47 in 6.2 mi South 3.5 mph - N/A Rain Light Rain
1:30 AM 35.6 °F 31.7 °F 33.8 °F 93% 29.47 in 6.2 mi South 4.6 mph - N/A   Partly Cloudy
2:00 AM 35.6 °F 31.7 °F 33.8 °F 93% 29.47 in - South 4.6 mph - N/A   Clear
2:11 AM 35 °F - 33 °F 90% 29.53 in 12 mi South 4.5 mph - - Rain Light Rain
2:30 AM 35.6 °F 32.8 °F 33.8 °F 93% 29.47 in - SSW 3.5 mph - N/A   Clear
3:00 AM 34 °F - 33 °F 93% 29.55 in 9 mi West 4.5 mph - -   Overcast
3:00 AM 33.8 °F 29.6 °F 32.0 °F 93% 29.47 in 5.6 mi WSW 4.6 mph - N/A   Unknown
3:30 AM 35.6 °F 32.8 °F 33.8 °F 93% 29.47 in - SSW 3.5 mph - N/A   Clear
4:00 AM 35 °F - 33 °F 92% 29.57 in 9 mi SW 4.5 mph - -   Partly Cloudy
4:00 AM 35.6 °F 29.9 °F 33.8 °F 93% 29.50 in - SSW 6.9 mph - N/A   Clear
4:30 AM 37.4 °F 31.4 °F 33.8 °F 87% 29.50 in 6.2 mi SSW 8.1 mph - N/A   Mostly Cloudy
5:00 AM 38 °F - 33 °F 77% 29.58 in 19 mi SW 8.9 mph - -   Mostly Cloudy
5:00 AM 39.2 °F 33.0 °F 33.8 °F 81% 29.53 in 6.2 mi SSW 9.2 mph - N/A   Overcast
5:30 AM 39.2 °F 30.5 °F 32.0 °F 75% 29.56 in 6.2 mi SW 16.1 mph - N/A   Mostly Cloudy
6:00 AM 39 °F - 33 °F 72% 29.61 in 19 mi SW 13.4 mph - -   Mostly Cloudy
6:00 AM 39.2 °F 30.2 °F 33.8 °F 81% 29.56 in 6.2 mi SW 17.3 mph - N/A   Mostly Cloudy
6:30 AM 39.2 °F 29.6 °F 33.8 °F 81% 29.56 in 6.2 mi SW 19.6 mph - N/A   Mostly Cloudy
7:00 AM 39 °F - 33 °F 73% 29.64 in 19 mi WSW 13.4 mph - -   Partly Cloudy
7:00 AM 39.2 °F 29.8 °F 33.8 °F 81% 29.59 in 6.2 mi SW 18.4 mph - N/A   Mostly Cloudy
7:30 AM 39.2 °F 29.8 °F 33.8 °F 81% 29.62 in 6.2 mi SW 18.4 mph - N/A   Mostly Cloudy
7:45 AM 39.2 °F 30.8 °F 33.8 °F 81% 29.62 in 6.2 mi SW 15.0 mph - N/A Rain Light Rain
8:00 AM 38 °F - 34 °F 79% 29.68 in 19 mi SW 13.4 mph - - Rain Light Rain
8:00 AM 39.2 °F 31.2 °F 33.8 °F 81% 29.62 in 6.2 mi SW 13.8 mph - N/A Rain Light Rain
8:30 AM 39.2 °F 30.5 °F 33.8 °F 81% 29.62 in 6.2 mi SW 16.1 mph - N/A   Mostly Cloudy
9:00 AM 39 °F - 35 °F 78% 29.68 in 19 mi WSW 15.7 mph - - Rain Light Rain
9:00 AM 39.2 °F 29.6 °F 33.8 °F 81% 29.62 in 6.2 mi WSW 19.6 mph - N/A   Mostly Cloudy
9:30 AM 39.2 °F 31.2 °F 33.8 °F 81% 29.65 in 6.2 mi WSW 13.8 mph - N/A   Mostly Cloudy
10:00 AM 39 °F - 33 °F 73% 29.72 in 37 mi WSW 15.7 mph - -   Partly Cloudy
10:00 AM 39.2 °F 30.2 °F 33.8 °F 81% 29.68 in 6.2 mi SW 17.3 mph - N/A   Partly Cloudy
10:30 AM 41.0 °F 31.9 °F 33.8 °F 76% 29.68 in 6.2 mi SW 19.6 mph - N/A   Partly Cloudy
11:00 AM 42 °F - 34 °F 64% 29.73 in 37 mi SW 20.1 mph - -   Mostly Cloudy
11:00 AM 41.0 °F 31.4 °F 33.8 °F 76% 29.68 in 6.2 mi SW 21.9 mph - N/A   Partly Cloudy
11:30 AM 41.0 °F 31.4 °F 32.0 °F 70% 29.68 in 6.2 mi WSW 21.9 mph 33.4 mph N/A   Mostly Cloudy
12:00 PM 40 °F - 33 °F 67% 29.74 in 37 mi WSW 15.7 mph - -   Mostly Cloudy
12:00 PM 41.0 °F 32.5 °F 32.0 °F 70% 29.68 in 6.2 mi SW 17.3 mph - N/A   Mostly Cloudy
12:30 PM 41.0 °F 31.9 °F 33.8 °F 76% 29.68 in 6.2 mi WSW 19.6 mph - N/A   Mostly Cloudy
1:00 PM 41 °F - 32 °F 61% 29.73 in 37 mi WSW 15.7 mph - -   Partly Cloudy
1:00 PM 41.0 °F 32.2 °F 32.0 °F 70% 29.68 in 6.2 mi WSW 18.4 mph - N/A   Mostly Cloudy
1:30 PM 41.0 °F 32.2 °F 32.0 °F 70% 29.68 in 6.2 mi WSW 18.4 mph - N/A   Mostly Cloudy
2:00 PM 42 °F - 32 °F 56% 29.73 in 37 mi WSW 13.4 mph - -   Mostly Cloudy
2:00 PM 41.0 °F 32.8 °F 32.0 °F 70% 29.68 in 6.2 mi WSW 16.1 mph - N/A   Mostly Cloudy
2:30 PM 41.0 °F 33.1 °F 30.2 °F 65% 29.68 in 6.2 mi SW 15.0 mph - N/A   Mostly Cloudy
3:00 PM 42 °F - 28 °F 46% 29.72 in 47 mi WSW 17.9 mph - -   Mostly Cloudy
3:00 PM 41.0 °F 31.9 °F 28.4 °F 61% 29.68 in 6.2 mi WSW 19.6 mph - N/A   Mostly Cloudy
3:30 PM 42.8 °F 34.8 °F 26.6 °F 53% 29.68 in 6.2 mi WSW 17.3 mph - N/A   Mostly Cloudy
4:00 PM 42 °F - 28 °F 46% 29.73 in 47 mi West 13.4 mph - -   Mostly Cloudy
4:00 PM 42.8 °F 35.4 °F 28.4 °F 57% 29.68 in 6.2 mi WSW 15.0 mph - N/A   Mostly Cloudy
4:30 PM 41.0 °F 34.3 °F 28.4 °F 61% 29.68 in 6.2 mi WSW 11.5 mph - N/A   Mostly Cloudy
5:00 PM 38 °F - 29 °F 59% 29.74 in 47 mi SW 6.7 mph - -   Partly Cloudy
5:00 PM 39.2 °F 33.0 °F 28.4 °F 65% 29.68 in 6.2 mi SW 9.2 mph - N/A   Scattered Clouds
5:30 PM 37.4 °F 33.8 °F 30.2 °F 75% 29.71 in 6.2 mi WSW 4.6 mph - N/A   Scattered Clouds
6:00 PM 36 °F - 28 °F 61% 29.77 in 44 mi WSW 8.9 mph - -   Partly Cloudy
6:00 PM 37.4 °F 30.8 °F 28.4 °F 70% 29.71 in 6.2 mi SW 9.2 mph - N/A   Scattered Clouds
6:30 PM 35.6 °F 30.7 °F 28.4 °F 75% 29.71 in 6.2 mi SSW 5.8 mph - N/A   Scattered Clouds
7:00 PM 37 °F - 28 °F 60% 29.78 in 31 mi SSW 4.5 mph - -   Mostly Cloudy
7:00 PM 37.4 °F 32.8 °F 28.4 °F 70% 29.71 in 6.2 mi SSW 5.8 mph - N/A   Mostly Cloudy
7:30 PM 37.4 °F 31.4 °F 28.4 °F 70% 29.74 in 6.2 mi SSW 8.1 mph - N/A   Mostly Cloudy
8:00 PM 37 °F - 29 °F 64% 29.80 in 31 mi SW 6.7 mph - -   Mostly Cloudy
8:00 PM 37.4 °F 31.4 °F 28.4 °F 70% 29.74 in 6.2 mi SW 8.1 mph - N/A   Mostly Cloudy
8:30 PM 37.4 °F 31.4 °F 28.4 °F 70% 29.74 in 6.2 mi SW 8.1 mph - N/A   Mostly Cloudy
9:00 PM 35 °F - 28 °F 66% 29.81 in 31 mi SW 8.9 mph - -   Scattered Clouds
9:00 PM 33.8 °F 26.4 °F 28.4 °F 81% 29.74 in 6.2 mi SSW 9.2 mph - N/A   Partly Cloudy
9:30 PM 33.8 °F 28.6 °F 26.6 °F 75% 29.74 in - SSW 5.8 mph - N/A   Clear
10:00 PM 34 °F - 27 °F 65% 29.80 in 31 mi South 6.7 mph - -   Clear
10:00 PM 35.6 °F 30.7 °F 26.6 °F 70% 29.74 in - South 5.8 mph - N/A   Clear
10:30 PM 33.8 °F 29.6 °F 26.6 °F 75% 29.74 in - South 4.6 mph - N/A   Clear
11:00 PM 33 °F - 26 °F 68% 29.81 in 25 mi South 4.5 mph - -   Clear
11:00 PM 32.0 °F 28.7 °F 26.6 °F 80% 29.74 in - South 3.5 mph - N/A   Clear
11:30 PM 33.8 °F - 26.6 °F 75% 29.74 in - South 2.3 mph - N/A   Clear